This is the latest recevied weather packets stored in our database for station/object KJ4EBE. If no packets are shown the sender has not sent any weather packets the latest 10 day(s).
| Time | Temp. | Humidity | Pressure | Rain* | Wind** | Luminosity | Snow |
|---|---|---|---|---|---|---|---|
| 1778074929 | 16.67° C | 91% | 1011.3 hPa | 0 mm | - | 25 W/m² | - |
| 1778074627 | 16.67° C | 91% | 1011 hPa | 0 mm | - | 37 W/m² | - |
| 1778074323 | 16.67° C | 90% | 1011 hPa | 0 mm | - | 44 W/m² | - |
| 1778074021 | 16.67° C | 90% | 1010.9 hPa | 0 mm | - | 48 W/m² | - |
| 1778073717 | 16.67° C | 90% | 1011.1 hPa | 0 mm | - | 63 W/m² | - |
| 1778073415 | 16.67° C | 89% | 1011.4 hPa | 0 mm | - | 43 W/m² | - |
| 1778073111 | 16.67° C | 88% | 1011.3 hPa | 0 mm | - | 46 W/m² | - |
| 1778072808 | 17.22° C | 88% | 1010.9 hPa | 0 mm | - | 35 W/m² | - |
| 1778072505 | 17.22° C | 88% | 1010.8 hPa | 0 mm | - | 38 W/m² | - |
| 1778072203 | 17.22° C | 88% | 1010.5 hPa | 0 mm | - | 29 W/m² | - |
| 1778071901 | 17.22° C | 88% | 1010.5 hPa | 0 mm | - | 29 W/m² | - |
| 1778071598 | 17.22° C | 88% | 1010.2 hPa | 0 mm | - | 25 W/m² | - |
| 1778071296 | 17.22° C | 88% | 1010.1 hPa | 0 mm | - | 24 W/m² | - |
| 1778070993 | 17.22° C | 88% | 1010.5 hPa | 0 mm | - | 23 W/m² | - |
| 1778070692 | 17.22° C | 88% | 1010.3 hPa | 0 mm | - | 18 W/m² | - |
| 1778070388 | 17.22° C | 88% | 1010.2 hPa | 0 mm | - | 17 W/m² | - |
| 1778070086 | 17.78° C | 88% | 1010.3 hPa | 0 mm | - | 14 W/m² | - |
| 1778069784 | 17.78° C | 88% | 1010 hPa | 0 mm | - | 14 W/m² | - |
| 1778069480 | 17.78° C | 88% | 1010.1 hPa | 0 mm | - | 10 W/m² | - |
| 1778069178 | 17.78° C | 88% | 1009.9 hPa | 0 mm | - | 4 W/m² | - |
| 1778068875 | 18.33° C | 90% | 1009.8 hPa | 0 mm | - | 4 W/m² | - |
| 1778068574 | 18.33° C | 90% | 1009.8 hPa | 0 mm | - | 2 W/m² | - |
| 1778068271 | 18.33° C | 90% | 1009.7 hPa | 0 mm | - | 1 W/m² | - |
| 1778067968 | 18.33° C | 90% | 1009.7 hPa | 0 mm | - | 0 W/m² | - |
| 1778067666 | 18.33° C | 90% | 1009.7 hPa | 0 mm | - | 0 W/m² | - |
* Rain latest hour (hover to see other rain measurements)
** Current wind speed in m/s (hover to see current wind gust speed)